TimeEST,TemperatureF,Dew PointF,Humidity,Sea Level PressureIn,VisibilityMPH,Wind Direction,Wind SpeedMPH,Gust SpeedMPH,PrecipitationIn,Events,Conditions,WindDirDegrees,DateUTC
12:00 AM,64.4,62.6,94,30.02,7.0,North,8.1,-,0.03,Rain,Heavy Rain,10,2013-02-15 05:00:00
12:41 AM,64.4,62.6,94,30.00,10.0,NNE,6.9,-,0.08,Rain,Light Rain,20,2013-02-15 05:41:00
12:53 AM,64.0,62.1,93,30.01,10.0,North,4.6,-,0.09,Rain,Light Rain,10,2013-02-15 05:53:00
1:00 AM,64.4,62.6,94,30.01,10.0,North,4.6,-,0.00,Rain,Light Rain,10,2013-02-15 06:00:00
1:53 AM,64.0,62.1,93,29.99,8.0,North,5.8,-,0.03,Rain,Rain,10,2013-02-15 06:53:00
2:23 AM,64.4,62.6,94,29.97,9.0,North,3.5,-,0.04,Rain,Light Rain,10,2013-02-15 07:23:00
2:33 AM,64.4,62.6,94,29.97,9.0,NNW,6.9,-,0.05,Rain,Light Rain,340,2013-02-15 07:33:00
2:53 AM,64.0,63.0,96,29.98,10.0,North,3.5,-,0.06,Rain,Light Rain,360,2013-02-15 07:53:00
3:03 AM,64.4,62.6,94,29.97,8.0,NNE,3.5,-,0.03,Rain,Light Rain,30,2013-02-15 08:03:00
3:17 AM,64.4,64.4,100,29.98,10.0,Calm,Calm,-,0.03,Rain,Light Rain,0,2013-02-15 08:17:00
3:53 AM,64.0,63.0,96,29.98,7.0,NNW,5.8,-,0.07,Rain,Light Rain,330,2013-02-15 08:53:00
4:53 AM,64.9,64.0,97,29.97,10.0,Calm,Calm,-,0.01,,Overcast,0,2013-02-15 09:53:00
5:22 AM,64.4,64.4,100,29.97,10.0,North,4.6,-,0.01,Rain,Light Rain,350,2013-02-15 10:22:00
5:53 AM,64.9,64.9,100,29.99,10.0,NNW,4.6,-,0.01,,Overcast,340,2013-02-15 10:53:00
6:53 AM,66.0,66.0,100,29.99,10.0,North,5.8,-,0.00,,Overcast,10,2013-02-15 11:53:00
7:09 AM,66.2,66.2,100,30.01,10.0,North,5.8,-,N/A,,Overcast,350,2013-02-15 12:09:00
7:31 AM,66.2,66.2,100,30.00,10.0,NE,5.8,-,N/A,,Overcast,50,2013-02-15 12:31:00
7:53 AM,66.9,66.9,100,30.01,10.0,NNE,6.9,-,N/A,,Overcast,20,2013-02-15 12:53:00
8:38 AM,68.0,66.2,94,30.02,10.0,NNE,6.9,-,N/A,,Overcast,30,2013-02-15 13:38:00
8:53 AM,68.0,66.9,96,30.03,10.0,ENE,6.9,-,N/A,,Overcast,60,2013-02-15 13:53:00
9:53 AM,73.0,68.0,84,30.02,10.0,East,8.1,-,0.00,,Mostly Cloudy,80,2013-02-15 14:53:00
10:53 AM,73.9,66.0,76,30.02,10.0,NE,9.2,-,N/A,,Mostly Cloudy,50,2013-02-15 15:53:00
11:32 AM,73.4,64.4,73,30.02,10.0,NE,6.9,-,N/A,,Overcast,40,2013-02-15 16:32:00
11:53 AM,73.9,64.9,73,30.02,10.0,NE,6.9,-,N/A,,Overcast,50,2013-02-15 16:53:00
12:46 PM,71.6,68.0,88,30.01,2.0,NNW,6.9,-,0.08,Rain,Heavy Rain,330,2013-02-15 17:46:00
12:53 PM,71.1,68.0,90,30.01,2.0,NNW,10.4,-,0.18,Rain,Heavy Rain,330,2013-02-15 17:53:00
1:13 PM,69.8,66.2,88,30.00,2.0,North,8.1,-,0.08,Rain,Rain,360,2013-02-15 18:13:00
1:23 PM,69.8,68.0,94,29.99,2.0,North,8.1,-,0.09,Rain,Light Rain,350,2013-02-15 18:23:00
1:44 PM,69.8,66.2,88,29.98,2.0,North,12.7,-,0.11,Rain,Light Rain,350,2013-02-15 18:44:00
1:51 PM,69.8,66.2,88,29.98,2.0,NNW,10.4,-,0.11,Rain,Light Rain,340,2013-02-15 18:51:00
1:53 PM,70.0,66.0,87,29.99,2.0,NNW,12.7,-,0.11,Rain,Light Rain,340,2013-02-15 18:53:00
2:16 PM,68.0,64.4,88,29.98,2.0,North,11.5,-,0.02,Rain,Light Rain,350,2013-02-15 19:16:00
2:22 PM,68.0,64.4,88,29.98,3.0,North,11.5,-,0.02,Rain,Light Rain,350,2013-02-15 19:22:00
2:50 PM,68.0,64.4,88,29.98,1.0,NNW,9.2,-,0.08,Rain,Rain,340,2013-02-15 19:50:00
2:53 PM,68.0,64.9,90,29.98,1.0,NNW,9.2,-,0.08,Rain,Rain,340,2013-02-15 19:53:00
3:00 PM,68.0,64.4,88,29.97,6.0,NNW,9.2,-,0.03,Rain,Rain,340,2013-02-15 20:00:00
3:22 PM,68.0,66.2,94,29.97,10.0,NNW,6.9,-,0.05,Rain,Light Rain,340,2013-02-15 20:22:00
3:34 PM,68.0,64.4,88,29.97,10.0,NNW,8.1,-,0.05,,Overcast,340,2013-02-15 20:34:00
3:53 PM,68.0,64.9,90,29.98,7.0,NNW,8.1,-,0.07,Rain,Rain,340,2013-02-15 20:53:00
4:22 PM,68.0,64.4,88,29.97,10.0,North,6.9,-,0.02,Rain,Light Rain,360,2013-02-15 21:22:00
4:53 PM,66.9,64.9,93,29.98,2.0,North,8.1,-,0.03,Rain,Rain,360,2013-02-15 21:53:00
5:15 PM,66.2,64.4,94,29.96,4.0,NNE,6.9,-,0.01,Rain,Light Rain,20,2013-02-15 22:15:00
5:53 PM,66.9,64.9,93,29.97,4.0,NNW,5.8,-,0.01,Rain,Light Rain,340,2013-02-15 22:53:00
6:39 PM,66.2,64.4,94,29.96,10.0,NNE,8.1,-,0.01,Rain,Light Rain,20,2013-02-15 23:39:00
6:49 PM,66.2,64.4,94,29.96,10.0,North,5.8,-,0.01,Rain,Light Rain,10,2013-02-15 23:49:00
6:53 PM,66.0,64.9,96,29.97,10.0,NNE,5.8,-,0.01,Rain,Light Rain,20,2013-02-15 23:53:00
7:04 PM,66.2,64.4,94,29.96,10.0,NE,4.6,-,0.01,Rain,Light Rain,40,2013-02-16 00:04:00
7:53 PM,64.9,63.0,93,29.98,10.0,East,4.6,-,0.03,Rain,Light Rain,80,2013-02-16 00:53:00
8:53 PM,64.9,64.0,97,29.98,10.0,East,4.6,-,0.05,Rain,Light Rain,100,2013-02-16 01:53:00
9:50 PM,64.4,64.4,100,29.97,10.0,Calm,Calm,-,0.00,,Mostly Cloudy,0,2013-02-16 02:50:00
9:53 PM,64.9,64.0,97,29.98,10.0,North,3.5,-,0.00,,Overcast,350,2013-02-16 02:53:00
10:53 PM,64.9,64.9,100,29.98,10.0,NW,3.5,-,N/A,,Overcast,320,2013-02-16 03:53:00
11:22 PM,64.4,64.4,100,29.97,10.0,Calm,Calm,-,N/A,,Overcast,0,2013-02-16 04:22:00
11:53 PM,64.9,64.9,100,29.96,9.0,West,3.5,-,N/A,,Overcast,270,2013-02-16 04:53:00